Location: Aldenham
(51.6667°N, 0.3500°W)
Time: 16:07:31
(UTC+00:00)

Vanguard 2 Rocket - Pass Details

Date: 23 February 2026
Orbit: 553 x 3286 km, 32.9° (Epoch: 11 March)

Event Time Altitude Azimuth Distance (km) Brightness Sun altitude
Rises 17:02:33 0° 270° (W) 6,655 12.9 3.3°
Reaches altitude 10° 17:10:31 10° 250° (WSW) 5,038 13.3 2.2°
Maximum altitude 17:16:09 14° 226° (SW) 4,211 11.5 1.3°
Drops below altitude 10° 17:20:50 10° 200° (SSW) 4,009 10.8 0.6°
Sets 17:25:44 0° 176° (S) 4,430 10.6 -0.1°
